Location: Dammartin
(48.9032°N, 1.6195°E)
Time: 19:53:24
(UTC+00:00)

BlueWalker 3 - Pass Details

Date: 20 April 2024
Orbit: 482 x 494 km, 53.2° (Epoch: 22 May)

Event Time Altitude Azimuth Distance (km) Brightness Sun altitude
Rises 19:44:10 0° 231° (SW) 2,562 5.8 -8.4°
Reaches altitude 10° 19:46:20 10° 228° (SW) 1,686 4.9 -8.7°
Maximum altitude 19:50:06 60° 148° (SSE) 570 1.9 -9.3°
Drops below altitude 10° 19:53:53 10° 68° (ENE) 1,701 4.3 -9.8°
Sets 19:56:05 0° 65° (ENE) 2,588 5.2 -10.1°
Enters shadow 19:56:09 - 65° (ENE) 2,614 5.2 -10.1°
